Location: Newark
(33.6439°N, 114.9881°W)
Time: 15:50:08
(UTC+00:00)

A-11 Canister half - Pass Details

Date: 25 August 2019
Orbit: 1527 x 1682 km, 47.3° (Epoch: 17 October)

Event Time Altitude Azimuth Distance (km) Brightness Sun altitude
Rises 17:21:37 0° 219° (SW) 4,770 11.5 50.5°
Reaches altitude 10° 17:24:41 10° 217° (SW) 3,808 11.1 51.1°
Maximum altitude 17:34:18 67° 137° (SE) 1,751 11.3 52.8°
Drops below altitude 10° 17:44:14 10° 57° (ENE) 3,927 11.5 54.6°
Sets 17:47:27 0° 55° (NE) 4,927 11.8 55.1°
